FW4606 Weather Reports


Display with metric or nautical units.
time (UTC)temp
F
wind
direction
speed
MPH
gust
MPH
rain 1hr
in
rain 24hr
in
rain mn
in
humidity
%
barometer
mb
20260510204918 60 195 1.0 5.0 0.00 0.00 0.00 30 1020.3
20260510204140 60 350 1.0 9.0 0.00 0.00 0.00 29 1020.3
20260510203635 60 345 1.0 9.0 0.00 0.00 0.00 27 1020.2
20260510203129 60 40 1.0 5.0 0.00 0.00 0.00 29 1020.3
20260510202624 60 16 1.0 7.0 0.00 0.00 0.00 29 1020.4
20260510202348 60 65 1.0 7.0 0.00 0.00 0.00 28 1020.4
20260510201610 61 32 1.0 6.0 0.00 0.00 0.00 29 1020.4
20260510201105 61 7 1.0 6.0 0.00 0.00 0.00 27 1020.5
20260510200559 61 321 1.0 7.0 0.00 0.00 0.00 34 1020.4
20260510200052 60 336 1.0 7.0 0.00 0.00 0.00 32 1020.3
20260510195547 61 32 1.0 5.0 0.00 0.00 0.00 30 1020.4
20260510195041 62 23 0.0 4.0 0.00 0.00 0.00 29 1020.4
20260510194806 62 352 1.0 6.0 0.00 0.00 0.00 33 1020.4
20260510194028 62 9 1.0 6.0 0.00 0.00 0.00 32 1020.5
20260510193522 62 159 1.0 7.0 0.00 0.00 0.00 34 1020.4
20260510193017 61 106 1.0 7.0 0.00 0.00 0.00 32 1020.4
20260510192511 61 128 1.0 5.0 0.00 0.00 0.00 37 1020.4
20260510192237 61 359 1.0 5.0 0.00 0.00 0.00 34 1020.3
20260510191731 61 148 1.0 5.0 0.00 0.00 0.00 32 1020.3
20260510190953 62 316 2.0 6.0 0.00 0.00 0.00 34 1020.3
20260510190718 62 33 2.0 8.0 0.00 0.00 0.00 36 1020.3
20260510185941 61 97 2.0 8.0 0.00 0.00 0.00 39 1020.4
20260510185434 62 326 2.0 7.0 0.00 0.00 0.00 33 1020.3
20260510184929 62 128 1.0 7.0 0.00 0.00 0.00 38 1020.2
20260510184422 61 208 1.0 7.0 0.00 0.00 0.00 39 1020.4
20260510183917 60 193 1.0 7.0 0.00 0.00 0.00 39 1020.3
20260510183643 60 354 1.0 7.0 0.00 0.00 0.00 33 1020.4
20260510183135 59 113 1.0 7.0 0.00 0.00 0.00 37 1020.4
20260510182359 59 309 1.0 7.0 0.00 0.00 0.00 36 1020.4
20260510182123 59 36 1.0 6.0 0.00 0.00 0.00 35 1020.2
20260510181618 59 353 1.0 6.0 0.00 0.00 0.00 37 1020.4
20260510180840 60 19 1.0 11.0 0.00 0.00 0.00 35 1020.4
20260510180335 60 11 2.0 11.0 0.00 0.00 0.00 40 1020.5
20260510175829 60 144 3.0 11.0 0.00 0.00 0.00 36 1020.3
20260510175322 59 176 4.0 11.0 0.00 0.00 0.00 37 1020.2
20260510174817 60 215 2.0 9.0 0.00 0.00 0.00 38 1020.2
20260510174541 59 101 1.0 8.0 0.00 0.00 0.00 39 1020.3
20260510173805 59 0 1.0 8.0 0.00 0.00 0.00 35 1020.3
20260510173258 59 91 1.0 5.0 0.00 0.00 0.00 36 1020.4
20260510172753 59 224 1.0 8.0 0.00 0.00 0.00 38 1020.3
20260510172247 59 291 1.0 8.0 0.00 0.00 0.00 35 1020.2
20260510171741 59 335 1.0 6.0 0.00 0.00 0.00 41 1020.3
20260510171234 58 229 2.0 7.0 0.00 0.00 0.00 40 1020.1
20260510170728 59 347 1.0 7.0 0.00 0.00 0.00 39 1020.1
20260510170223 58 345 1.0 8.0 0.00 0.00 0.00 40 1020.3
20260510165716 58 124 1.0 8.0 0.00 0.00 0.00 39 1020.3
20260510165210 58 86 1.0 6.0 0.00 0.00 0.00 37 1020.3
20260510164705 58 324 2.0 7.0 0.00 0.00 0.00 43 1020.3
20260510164158 58 280 3.0 9.0 0.00 0.00 0.00 44 1020.4
20260510163653 58 134 1.0 9.0 0.00 0.00 0.00 42 1020.3
20260510163146 56 121 0.0 4.0 0.00 0.00 0.00 43 1020.4
20260510162911 55 39 1.0 6.0 0.00 0.00 0.00 45 1020.4
20260510162135 55 79 1.0 6.0 0.00 0.00 0.00 43 1020.4
20260510161629 55 9 1.0 6.0 0.00 0.00 0.00 42 1020.5
20260510161123 55 47 1.0 2.0 0.00 0.00 0.00 47 1020.4
20260510160617 54 13 1.0 6.0 0.00 0.00 0.00 46 1020.3
20260510160110 55 8 1.0 6.0 0.00 0.00 0.00 46 1020.4
20260510155604 55 14 1.0 4.0 0.00 0.00 0.00 45 1020.4
20260510155326 55 311 1.0 9.0 0.00 0.00 0.00 45 1020.4
20260510154821 55 333 1.0 9.0 0.00 0.00 0.00 47 1020.3
20260510154042 55 7 1.0 6.0 0.00 0.00 0.00 49 1020.3
20260510153536 55 93 2.0 6.0 0.00 0.00 0.00 50 1020.3
20260510153031 54 28 2.0 5.0 0.00 0.00 0.00 53 1020.3
20260510152524 54 207 1.0 6.0 0.00 0.00 0.00 50 1020.1
20260510152019 53 159 1.0 4.0 0.00 0.00 0.00 51 1020.2
20260510151743 53 124 0.0 4.0 0.00 0.00 0.00 51 1020.3
20260510151237 52 129 0.0 2.0 0.00 0.00 0.00 52 1020.2
20260510150501 52 150 0.0 2.0 0.00 0.00 0.00 52 1020.3
20260510145954 53 105 0.0 3.0 0.00 0.00 0.00 55 1020.3
20260510145448 52 229 0.0 4.0 0.00 0.00 0.00 54 1020.1
20260510144943 52 12 0.0 4.0 0.00 0.00 0.00 56 1020.1
20260510144436 51 15 0.0 2.0 0.00 0.00 0.00 58 1020.2
20260510143930 51 358 0.0 2.0 0.00 0.00 0.00 57 1020.1
20260510143425 50 11 0.0 2.0 0.00 0.00 0.00 59 1020.1
20260510142919 50 7 0.0 1.0 0.00 0.00 0.00 59 1020.0
20260510142412 50 32 0.0 1.0 0.00 0.00 0.00 60 1020.0
20260510141906 51 22 0.0 3.0 0.00 0.00 0.00 58 1020.0
20260510141631 50 122 0.0 5.0 0.00 0.00 0.00 60 1020.0
20260510141126 49 6 0.0 5.0 0.00 0.00 0.00 58 1019.9
20260510140349 50 23 0.0 4.0 0.00 0.00 0.00 59 1020.0
20260510135843 50 134 0.0 1.0 0.00 0.00 0.00 60 1019.9
20260510135337 49 335 0.0 3.0 0.00 0.00 0.00 63 1019.8
20260510134831 49 339 0.0 3.0 0.00 0.00 0.00 61 1019.9
20260510134325 48 315 0.0 2.0 0.00 0.00 0.00 64 1019.8
20260510133824 47 357 0.0 1.0 0.00 0.00 0.00 66 1019.8
20260510133819 47 9 0.0 2.0 0.00 0.00 0.00 65 1019.8
20260510133037 47 331 0.0 1.0 0.00 0.00 0.00 68 1019.8
20260510132301 46 16 0.0 1.0 0.00 0.00 0.00 71 1019.8
20260510132026 45 40 0.0 0.0 0.00 0.00 0.00 73 1019.7
20260510131249 45 232 0.0 0.0 0.00 0.00 0.00 77 1019.7
20260510130743 44 232 0.0 0.0 0.00 0.00 0.00 77 1019.7
20260510130237 44 15 0.0 0.0 0.00 0.00 0.00 79 1019.7
20260510130001 43 15 0.0 0.0 0.00 0.00 0.00 80 1019.7
20260510125225 42 15 0.0 0.0 0.00 0.00 0.00 79 1019.5
20260510124718 42 15 0.0 0.0 0.00 0.00 0.00 79 1019.5
20260510124212 42 15 0.0 0.0 0.00 0.00 0.00 81 1019.4
20260510123707 41 15 0.0 0.0 0.00 0.00 0.00 83 1019.3
20260510123200 41 15 0.0 0.0 0.00 0.00 0.00 85 1019.2
20260510122655 40 14 0.0 2.0 0.00 0.00 0.00 86 1019.2
20260510122149 40 15 0.0 2.0 0.00 0.00 0.00 86 1019.1
20260510121643 39 15 0.0 0.0 0.00 0.00 0.00 86 1019.1
20260510121137 38 15 0.0 0.0 0.00 0.00 0.00 87 1019.1
20260510120632 38 15 0.0 0.0 0.00 0.00 0.00 87 1019.1
20260510120358 38 15 0.0 0.0 0.00 0.00 0.00 88 1019.0
20260510115619 37 15 0.0 0.0 0.00 0.00 0.00 89 1019.0
20260510115113 37 15 0.0 0.0 0.00 0.00 0.00 89 1018.9
20260510114842 36 15 0.0 0.0 0.00 0.00 0.00 89 1018.9
20260510114107 36 15 0.0 0.0 0.00 0.00 0.00 88 1018.8
20260510113838 35 15 0.0 0.0 0.00 0.00 0.00 88 1018.8
20260510113105 35 15 0.0 0.0 0.00 0.00 0.00 88 1018.7
20260510112604 35 15 0.0 0.0 0.00 0.00 0.00 89 1018.7
20260510112102 35 15 0.0 0.0 0.00 0.00 0.00 89 1018.7
20260510111558 35 15 0.0 0.0 0.00 0.00 0.00 89 1018.6
20260510111329 34 15 0.0 0.0 0.00 0.00 0.00 89 1018.4
20260510110558 34 15 0.0 0.0 0.00 0.00 0.00 89 1018.4
20260510110057 34 15 0.0 0.0 0.00 0.00 0.00 89 1018.3
20260510105557 34 15 0.0 0.0 0.00 0.00 0.00 89 1018.3
20260510105101 34 15 0.0 0.0 0.00 0.00 0.00 89 1018.2
20260510104554 34 15 0.0 0.0 0.00 0.00 0.00 89 1018.1
20260510104052 34 15 0.0 0.0 0.00 0.00 0.00 88 1018.1
20260510103553 34 15 0.0 0.0 0.00 0.00 0.00 88 1018.0
20260510103052 34 15 0.0 0.0 0.00 0.00 0.00 88 1018.0
20260510102552 35 15 0.0 0.0 0.00 0.00 0.00 88 1017.8
20260510102052 35 15 0.0 0.0 0.00 0.01 0.00 88 1017.7
20260510101554 35 15 0.0 0.0 0.00 0.01 0.00 87 1017.6
20260510101319 35 15 0.0 0.0 0.00 0.01 0.00 88 1017.5
20260510100543 35 15 0.0 0.0 0.00 0.02 0.00 89 1017.5
20260510100041 34 15 0.0 0.0 0.00 0.02 0.00 90 1017.6
20260510095814 34 15 0.0 0.0 0.00 0.02 0.00 90 1017.5
20260510095042 33 15 0.0 0.0 0.00 0.02 0.00 89 1017.3
20260510094539 34 15 0.0 0.0 0.00 0.02 0.00 87 1017.1
20260510094039 34 15 0.0 0.0 0.00 0.02 0.00 87 1017.1
20260510093538 35 14 0.0 0.0 0.00 0.03 0.00 87 1017.1
20260510093041 35 15 0.0 0.0 0.00 0.03 0.00 86 1017.0
20260510092541 35 15 0.0 0.0 0.00 0.03 0.00 87 1017.0
20260510092039 35 15 0.0 0.0 0.00 0.04 0.00 87 1016.9
20260510091537 35 15 0.0 0.0 0.00 0.04 0.00 88 1016.8
20260510091307 34 15 0.0 0.0 0.00 0.04 0.00 90 1016.7
20260510090536 34 15 0.0 0.0 0.00 0.04 0.00 89 1016.8
20260510090032 34 15 0.0 0.0 0.00 0.04 0.00 90 1016.8
20260510085531 34 15 0.0 0.0 0.00 0.04 0.00 89 1016.7
20260510085030 34 15 0.0 0.0 0.00 0.04 0.00 89 1016.6
20260510084530 34 15 0.0 0.0 0.00 0.04 0.00 89 1016.4
20260510084028 34 15 0.0 0.0 0.00 0.04 0.00 89 1016.3
20260510083528 34 15 0.0 0.0 0.00 0.04 0.00 89 1016.3
20260510083027 34 15 0.0 0.0 0.00 0.04 0.00 89 1016.3
20260510082526 34 15 0.0 0.0 0.00 0.04 0.00 90 1016.2
20260510082026 34 15 0.0 0.0 0.00 0.04 0.00 90 1016.2
20260510081526 33 15 0.0 0.0 0.00 0.04 0.00 90 1016.1
20260510081023 33 15 0.0 0.0 0.00 0.04 0.00 90 1015.8
20260510080756 33 15 0.0 0.0 0.00 0.04 0.00 90 1015.9
20260510080023 33 15 0.0 0.0 0.00 0.04 0.00 90 1015.8
20260510075523 33 15 0.0 0.0 0.00 0.04 0.00 90 1015.8
20260510075021 33 15 0.0 0.0 0.00 0.04 0.00 90 1015.8
20260510074520 33 15 0.0 0.0 0.00 0.04 0.00 90 1015.8
20260510074252 33 15 0.0 0.0 0.00 0.04 0.00 90 1015.8
20260510073520 33 15 0.0 0.0 0.00 0.04 0.00 89 1015.7
20260510073018 33 15 0.0 0.0 0.00 0.04 0.00 89 1015.7
20260510072517 33 15 0.0 0.0 0.00 0.04 0.00 88 1015.8
20260510072247 33 15 0.0 0.0 0.00 0.04 0.00 88 1015.8
20260510071746 33 15 0.0 0.0 0.00 0.04 0.00 87 1015.8
20260510071013 34 15 0.0 0.0 0.00 0.04 0.00 86 1015.8
20260510070514 34 15 0.0 0.0 0.00 0.04 0.00 85 1015.8
20260510070016 34 15 0.0 0.0 0.00 0.04 0.00 86 1015.8
20260510065517 35 15 0.0 0.0 0.00 0.04 0.00 86 1015.8
20260510065015 35 15 0.0 0.0 0.00 0.04 0.00 85 1015.7
20260510064512 35 15 0.0 0.0 0.00 0.04 0.00 86 1015.7
20260510064009 35 15 0.0 0.0 0.00 0.04 0.00 86 1015.7
20260510063740 35 15 0.0 0.0 0.00 0.04 0.00 85 1015.7
20260510063010 35 14 0.0 0.0 0.00 0.04 0.00 86 1015.7
20260510062506 35 15 0.0 0.0 0.00 0.04 0.00 84 1015.6
20260510062004 36 15 0.0 0.0 0.00 0.04 0.00 84 1015.7
20260510061509 37 15 0.0 0.0 0.00 0.04 0.00 83 1015.6
20260510061504 36 15 0.0 0.0 0.00 0.04 0.00 83 1015.7
20260510060505 37 15 0.0 0.0 0.00 0.04 0.00 82 1015.6
20260510060005 38 15 0.0 0.0 0.00 0.04 0.00 81 1015.6
20260510055504 38 15 0.0 0.0 0.00 0.04 0.00 81 1015.6
20260510055005 38 15 0.0 0.0 0.00 0.04 0.00 79 1015.5
20260510054506 39 14 0.0 0.0 0.00 0.04 0.00 77 1015.5
20260510054001 39 15 0.0 0.0 0.00 0.04 0.00 74 1015.4
20260510053500 39 15 0.0 0.0 0.00 0.04 0.00 74 1015.4
20260510053233 39 14 0.0 0.0 0.00 0.04 0.00 75 1015.4
20260510052501 38 15 0.0 0.0 0.00 0.04 0.00 75 1015.4
20260510052001 38 15 0.0 0.0 0.00 0.04 0.00 74 1015.4
20260510051731 38 15 0.0 0.0 0.00 0.04 0.00 74 1015.4
20260510051002 38 15 0.0 0.0 0.00 0.04 0.00 74 1015.4
20260510050731 38 15 0.0 0.0 0.00 0.04 0.00 70 1015.4
20260510050232 39 15 0.0 0.0 0.00 0.04 0.00 67 1015.3
20260510045456 39 15 0.0 0.0 0.00 0.04 0.04 66 1015.2
20260510044950 40 15 0.0 0.0 0.00 0.04 0.04 65 1015.2
20260510044443 41 15 0.0 0.0 0.00 0.04 0.04 64 1015.2
20260510043938 42 15 0.0 0.0 0.00 0.04 0.04 64 1015.2
20260510043432 42 15 0.0 0.0 0.00 0.04 0.04 64 1015.2
20260510042926 43 15 0.0 0.0 0.00 0.04 0.04 63 1015.1
20260510042420 43 15 0.0 0.0 0.00 0.04 0.04 61 1015.1
20260510042144 43 15 0.0 0.0 0.00 0.04 0.04 62 1015.1
20260510041408 42 15 0.0 0.0 0.00 0.04 0.04 62 1015.1
20260510040901 42 15 0.0 0.0 0.00 0.04 0.04 61 1015.0
20260510040356 43 15 0.0 0.0 0.00 0.04 0.04 60 1015.1
20260510035850 43 14 0.0 0.0 0.00 0.04 0.04 61 1015.1
20260510035343 44 15 0.0 0.0 0.00 0.04 0.04 58 1015.1
20260510034837 44 15 0.0 0.0 0.00 0.04 0.04 58 1015.1
20260510034332 45 15 0.0 0.0 0.00 0.04 0.04 56 1015.0
20260510034057 46 15 0.0 0.0 0.00 0.04 0.04 55 1015.0
20260510033320 47 15 0.0 0.0 0.00 0.04 0.04 52 1015.0
20260510032814 47 15 0.0 0.0 0.00 0.04 0.04 51 1014.9
20260510032308 48 15 0.0 0.0 0.00 0.04 0.04 50 1014.8
20260510032034 48 15 0.0 0.0 0.00 0.04 0.04 50 1014.7
20260510031526 48 15 0.0 0.0 0.00 0.04 0.04 50 1014.7
20260510030750 48 16 0.0 0.0 0.00 0.04 0.04 51 1014.6
20260510030244 48 19 0.0 0.0 0.00 0.04 0.04 50 1014.5
20260510030010 48 20 0.0 1.0 0.00 0.04 0.04 51 1014.4
20260510025232 48 20 0.0 1.0 0.00 0.04 0.04 50 1014.3
20260510024725 47 20 0.0 0.0 0.00 0.04 0.04 51 1014.2
20260510024219 46 72 0.0 0.0 0.00 0.04 0.04 52 1014.1
20260510023714 47 72 0.0 0.0 0.00 0.04 0.04 52 1014.0
20260510023208 47 72 0.0 0.0 0.00 0.04 0.04 52 1013.8
20260510022701 47 72 0.0 0.0 0.00 0.04 0.04 53 1013.6
20260510022156 47 72 0.0 0.0 0.00 0.04 0.04 51 1013.5
20260510021650 48 72 0.0 0.0 0.00 0.04 0.04 51 1013.4
20260510021144 48 72 0.0 0.0 0.00 0.04 0.04 51 1013.4
20260510020638 49 126 0.0 0.0 0.00 0.04 0.04 50 1013.1
20260510020132 49 125 0.0 0.0 0.00 0.04 0.04 47 1013.0
20260510015625 50 126 0.0 1.0 0.00 0.04 0.04 45 1012.9
20260510015120 51 231 0.0 1.0 0.00 0.04 0.04 44 1012.8
20260510014614 52 105 0.0 1.0 0.00 0.04 0.04 44 1012.7
20260510014338 53 126 0.0 1.0 0.00 0.04 0.04 42 1012.6
20260510013833 53 125 0.0 1.0 0.00 0.04 0.04 41 1012.5
20260510013056 54 3 0.0 1.0 0.00 0.04 0.04 39 1012.4
20260510012821 54 11 0.0 1.0 0.00 0.04 0.04 38 1012.4
20260510012050 55 18 0.0 3.0 0.00 0.04 0.04 38 1012.3
20260510011547 55 34 0.0 3.0 0.00 0.04 0.04 37 1012.1
20260510011047 55 339 0.0 2.0 0.00 0.04 0.04 39 1012.1
20260510010818 55 150 0.0 3.0 0.00 0.04 0.04 37 1012.0
20260510010048 55 132 0.0 4.0 0.00 0.04 0.04 38 1012.0
20260510005548 56 210 0.0 5.0 0.00 0.04 0.04 39 1011.9
20260510005047 56 155 0.0 8.0 0.00 0.04 0.04 36 1011.8
20260510004547 57 304 0.0 8.0 0.00 0.04 0.04 38 1011.7
20260510004319 57 122 0.0 4.0 0.00 0.04 0.04 38 1011.7
20260510003818 58 136 1.0 4.0 0.00 0.04 0.04 37 1011.6
20260510003318 58 288 1.0 4.0 0.00 0.04 0.04 35 1011.6
20260510002547 59 0 1.0 6.0 0.00 0.04 0.04 36 1011.5
20260510002047 59 158 1.0 6.0 0.00 0.04 0.04 35 1011.4
20260510001547 60 124 1.0 5.0 0.00 0.04 0.04 35 1011.5
20260510001047 60 49 1.0 7.0 0.00 0.04 0.04 34 1011.4
20260510000547 60 141 1.0 7.0 0.00 0.04 0.04 33 1011.2
20260510000319 60 106 1.0 7.0 0.00 0.04 0.04 33 1011.1
20260509235543 60 4 1.0 6.0 0.00 0.04 0.04 31 1011.2
20260509235036 61 80 1.0 6.0 0.00 0.04 0.04 30 1011.1
20260509234531 61 318 0.0 4.0 0.00 0.04 0.04 30 1011.1
20260509234255 62 5 0.0 6.0 0.00 0.04 0.04 31 1011.0
20260509233518 62 13 1.0 6.0 0.00 0.04 0.04 29 1011.0
20260509233244 62 23 1.0 4.0 0.00 0.04 0.04 29 1010.9
20260509232506 62 41 1.0 4.0 0.00 0.04 0.04 29 1010.9
20260509232232 62 66 1.0 4.0 0.00 0.04 0.04 33 1010.8
20260509231457 62 7 1.0 6.0 0.00 0.04 0.04 30 1010.7
20260509231451 61 97 1.0 6.0 0.00 0.04 0.04 31 1010.7
20260509230442 62 5 1.0 10.0 0.00 0.04 0.04 32 1010.8
20260509225936 63 309 1.0 10.0 0.00 0.04 0.04 31 1010.5
20260509225430 62 351 1.0 6.0 0.00 0.04 0.04 31 1010.7
20260509224923 62 339 1.0 6.0 0.00 0.04 0.04 29 1010.6
20260509224418 63 224 1.0 6.0 0.00 0.04 0.04 29 1010.7
20260509223912 62 239 1.0 5.0 0.00 0.04 0.04 33 1010.5
20260509223407 62 22 1.0 6.0 0.00 0.04 0.04 31 1010.5
20260509222900 62 125 1.0 6.0 0.00 0.04 0.04 32 1010.5
20260509222353 63 110 1.0 6.0 0.00 0.04 0.04 29 1010.5
20260509221848 63 117 1.0 6.0 0.00 0.04 0.04 32 1010.5
20260509221613 64 25 1.0 8.0 0.00 0.04 0.04 32 1010.5
20260509220835 64 120 1.0 8.0 0.00 0.04 0.04 34 1010.4
20260509220330 64 27 1.0 6.0 0.00 0.04 0.04 32 1010.4
20260509215824 63 224 1.0 5.0 0.00 0.04 0.04 35 1010.2
20260509215318 63 126 1.0 5.0 0.00 0.04 0.04 31 1010.3
20260509214812 63 160 2.0 7.0 0.00 0.04 0.04 37 1010.3
20260509214305 64 54 2.0 7.0 0.00 0.04 0.04 31 1010.3
20260509213759 64 139 1.0 5.0 0.00 0.04 0.04 31 1010.2
20260509213255 64 169 1.0 5.0 0.00 0.04 0.04 33 1010.2
20260509213250 63 4 1.0 6.0 0.00 0.04 0.04 30 1010.2
20260509212242 63 333 1.0 6.0 0.00 0.04 0.04 29 1010.1
20260509211735 65 1 1.0 6.0 0.00 0.04 0.04 30 1010.1
20260509211230 64 166 1.0 6.0 0.00 0.04 0.04 30 1010.1
20260509210724 64 259 1.0 8.0 0.00 0.04 0.04 32 1010.1
20260509210218 63 5 1.0 8.0 0.00 0.04 0.04 32 1010.0
20260509205711 63 100 1.0 8.0 0.00 0.04 0.04 31 1010.1
20260509205206 62 139 2.0 8.0 0.00 0.04 0.04 31 1009.9